Simultaneous Nadir Overpasses (SNOs) Predictions

Prediction of SNOs between AURA and NPP Satellite Orbit:

Table of predicted SNOs for the next 14.0 days since TLE Epoch: 9/8/2013
Index Date (AURA) Time (AURA) Lat,Lon (AURA) SZA (AURA ) Date (NPP) Time (NPP) Lat,Lon (NPP) SZA (NPP ) Distance(km) Time Diff (sec)
1 09/08/2013 03:41:45 -79.23,-160.46 92.87 09/08/2013 03:42:19 -79.23,-160.59 92.87 2.97 34
2 09/10/2013 19:08:52 79.05, 146.63 88.33 09/10/2013 19:08:36 79.04, 146.54 88.36 1.88 16
3 09/10/2013 19:58:11 -79.37, -43.71 92.11 09/10/2013 19:59:12 -79.36, -43.77 92.14 1.54 61
4 09/13/2013 10:36:00 -78.90, 93.99 90.53 09/13/2013 10:34:53 -78.91, 94.06 90.49 1.74 67
5 09/13/2013 11:25:18 79.22, -96.47 89.06 09/13/2013 11:25:29 79.22, -96.44 89.05 0.58 11
6 09/16/2013 02:52:29 -78.95,-149.88 89.62 09/16/2013 02:51:50 -78.94,-149.94 89.58 1.43 39
7 09/16/2013 03:41:47 79.25, 19.65 89.98 09/16/2013 03:42:26 79.25, 19.54 89.97 2.49 39
8 09/18/2013 19:08:54 -79.14, -32.83 88.91 09/18/2013 19:08:42 -79.15, -32.71 88.93 2.77 12
9 09/18/2013 19:58:13 79.40, 136.49 90.75 09/18/2013 19:59:19 79.41, 136.57 90.68 1.80 66
10 09/21/2013 10:36:01 78.91, -86.00 92.38 09/21/2013 10:35:00 78.91, -85.94 92.41 1.30 61




NCC Satellite Simultaneous Nadir Overpasses (SNOs) Prediction Service
